Theta_e
305 305 304 304 304 304 303 303 304 302 302 303 304 308 307 304 303 303 303 304 304 305 305 304 304 304 299 298 296 295 293 293 291 294 294 298 298 299 302 301 304 303 303
306 305 304 305 304 303 304 304 304 303 302 302 305 305 302 301 300 300 301 304 302 303 304 305 301 303 297 295 294 292 292 292 291 291 294 297 296 297 299 300 303 305 302
306 305 304 304 304 302 303 303 308 308 304 302 302 303 301 300 299 299 301 305 306 302 300 302 299 297 294 293 292 291 291 294 293 292 293 294 294 298 297 298 299 299 304
306 305 304 304 302 303 303 306 308 305 307 301 302 302 299 298 297 298 299 299 301 301 300 301 298 297 295 293 293 291 293 291 292 292 292 292 293 296 296 295 294 296 296
306 305 305 304 304 304 303 307 304 307 307 302 302 302 297 296 297 294 296 297 298 302 301 301 300 301 303 301 295 292 293 291 292 291 290 291 292 291 291 293 291 292 293
305 305 305 305 309 304 303 303 304 308 305 302 301 302 300 298 299 301 300 295 298 300 300 302 300 303 300 302 304 305 302 294 292 290 289 289 289 289 291 291 290 289 288
305 307 307 306 305 303 302 303 303 305 303 301 300 301 299 295 298 298 301 294 298 299 298 299 299 301 299 294 298 302 301 303 303 298 290 290 290 292 291 290 291 290 289
304 307 309 305 304 301 302 301 301 302 301 299 299 300 301 299 300 298 300 295 297 299 297 297 297 299 298 296 293 294 296 296 296 298 294 295 295 294 294 297 295 292 291
305 308 306 303 302 302 301 300 301 301 300 300 301 300 300 300 301 299 297 295 296 298 298 299 298 296 299 298 293 293 294 295 301 302 301 299 298 298 298 295 294 292 289
305 308 303 301 302 301 301 301 301 301 302 302 303 301 303 301 302 300 298 297 295 296 297 298 300 297 297 296 292 292 291 292 293 295 294 293 294 296 297 294 293 290 290
310 306 302 301 301 301 301 301 301 301 302 302 303 303 306 305 302 300 299 297 295 296 296 297 298 298 296 295 295 294 292 293 295 292 292 291 292 294 294 294 294 293 291
307 303 303 302 304 306 302 302 303 303 304 306 303 305 306 306 305 300 298 297 298 295 295 297 298 295 296 296 297 296 295 295 292 291 292 292 292 292 293 294 295 295 295
304 301 302 303 304 306 302 302 302 304 304 304 302 299 298 300 299 300 297 296 297 295 294 298 297 297 297 298 299 296 295 292 291 293 292 292 292 293 294 294 295 295 294
303 302 303 304 302 303 304 303 302 302 302 300 299 297 297 297 297 298 297 295 298 296 297 293 297 298 298 298 296 296 294 292 293 293 292 292 293 293 292 293 292 292 293
302 303 303 304 301 301 302 301 302 304 302 300 300 298 296 295 295 293 292 292 291 292 292 296 296 295 293 292 292 294 292 292 294 294 292 292 291 292 292 293 293 293 292
302 303 303 304 303 303 305 304 302 300 301 299 294 298 298 297 293 293 293 292 291 291 295 294 293 292 291 291 292 293 292 294 294 293 293 292 291 291 291 292 293 293 292
303 306 306 300 300 301 301 301 300 301 299 294 293 294 294 295 292 293 293 292 292 293 295 294 291 291 290 291 293 292 292 295 294 293 292 292 291 291 291 291 292 293 292
303 300 299 299 301 301 301 301 300 301 299 297 294 295 294 293 292 293 292 295 295 294 291 290 291 291 291 292 293 294 295 295 293 292 292 291 291 290 290 291 292 292 293
304 302 302 301 303 302 301 301 303 303 298 296 295 297 297 292 293 293 295 294 294 292 291 291 291 291 292 294 295 296 295 293 292 292 291 290 291 290 290 291 292 291 291
304 302 298 298 300 299 301 302 299 297 297 298 296 294 295 298 296 296 298 295 292 292 292 292 292 293 295 295 296 295 293 292 291 291 290 290 290 290 290 291 293 293 294
303 303 300 300 299 300 303 301 296 295 295 296 294 291 288 296 294 294 293 293 293 292 292 292 292 293 296 296 295 293 292 291 291 290 289 289 290 290 292 293 295 296 297
303 302 302 300 302 304 300 296 295 295 295 295 294 293 289 295 294 293 293 294 293 293 294 294 294 294 295 295 293 291 290 289 290 290 289 289 290 291 292 294 296 297 296
303 304 305 305 303 299 297 295 295 294 294 295 294 295 295 294 294 293 294 294 294 295 294 295 293 294 296 295 293 291 289 289 289 289 287 288 290 292 294 295 297 295 294
301 302 304 301 298 296 295 294 293 293 294 294 294 294 293 293 293 293 293 294 297 296 297 294 293 295 295 294 292 290 290 289 287 287 288 289 290 291 294 297 296 295 294
299 303 300 298 297 296 295 294 294 294 293 294 293 293 293 293 293 294 294 296 297 295 294 294 292 294 293 292 288 287 287 286 286 287 288 288 289 292 295 295 295 295 295
303 300 298 297 296 295 294 293 292 292 291 292 293 294 293 293 293 293 296 296 294 293 293 294 293 293 292 290 287 285 286 286 287 286 288 291 294 297 296 296 297 296 296
Wind_Speed
7 5 5 3 4 5 3 2 3 3 4 5 4 6 8 7 7 7 7 7 7 7 5 5 6 6 4 5 4 3 3 2 2 7 3 8 8 10 6 5 5 5 5
7 5 4 4 4 3 3 2 3 5 3 4 5 6 6 6 7 7 7 7 5 4 5 6 5 4 5 4 4 6 3 4 1 7 6 7 5 3 3 3 4 6 5
7 6 5 3 4 2 2 1 4 5 4 4 4 7 6 6 7 7 6 7 5 4 3 5 3 4 3 3 4 5 4 4 4 3 6 3 3 3 3 3 4 5 6
7 6 5 5 4 3 0 1 3 3 5 4 4 7 5 5 5 6 6 6 6 5 3 2 3 3 1 3 4 5 5 5 5 4 4 4 3 5 2 4 4 2 4
7 4 5 4 3 4 1 2 2 2 3 5 4 5 4 3 2 3 4 6 6 6 6 1 4 5 4 2 2 6 5 4 4 4 4 3 4 4 6 3 3 3 4
7 4 3 2 2 5 3 1 4 3 4 5 3 2 5 2 2 3 4 5 6 6 6 6 3 4 2 5 8 12 8 3 4 3 3 3 5 4 3 3 2 2 4
7 6 5 4 3 4 1 4 4 2 4 2 1 2 4 4 6 7 7 5 6 7 5 4 6 3 1 4 8 12 10 11 12 8 4 5 5 4 3 3 2 3 4
7 6 6 5 2 4 4 4 3 2 3 3 4 5 4 5 8 8 8 6 6 6 6 6 2 4 5 7 5 7 7 6 7 6 4 6 5 5 4 6 6 5 4
6 5 6 5 1 6 5 3 2 2 3 4 5 7 6 7 11 9 7 6 6 7 7 3 5 4 7 7 6 8 7 7 6 10 9 6 5 6 8 5 6 7 6
6 4 6 4 6 6 5 4 4 3 4 5 6 7 8 8 10 12 9 5 6 5 7 5 9 7 8 8 6 6 6 6 5 7 6 6 8 8 8 2 4 6 4
4 6 6 4 5 6 5 3 4 5 5 6 7 7 7 8 10 11 14 6 5 5 4 4 4 4 7 9 7 6 3 4 6 5 5 4 5 7 6 6 5 5 6
5 6 6 6 4 4 6 5 5 6 6 8 6 8 6 7 12 9 15 12 6 3 5 4 5 10 10 11 10 8 4 5 4 5 6 7 6 6 7 8 9 8 6
2 4 6 6 5 5 5 6 5 6 5 7 4 4 3 2 4 2 7 8 10 3 4 6 10 7 9 7 13 7 4 3 4 6 5 5 6 6 8 8 9 8 6
3 3 3 4 4 4 4 5 4 5 5 5 4 4 3 4 4 4 2 4 6 5 5 6 6 8 9 8 5 5 3 3 5 5 5 5 5 6 6 6 6 7 7
5 5 5 4 5 6 6 6 5 7 6 6 5 2 2 2 1 1 2 4 4 4 6 3 4 4 4 5 4 4 3 4 8 5 5 6 5 6 6 6 5 6 5
5 5 5 4 4 5 6 7 10 17 18 17 8 5 1 4 9 3 6 6 5 5 1 3 3 4 5 4 5 4 3 8 7 6 5 5 6 6 7 6 6 5 5
5 2 2 3 4 4 4 4 5 9 7 5 12 9 4 9 9 7 7 7 8 4 2 2 3 4 4 5 4 3 5 7 7 6 6 6 6 6 7 7 6 6 5
3 1 1 3 3 4 5 4 3 3 3 4 3 3 4 7 7 5 7 6 4 5 4 3 4 5 5 4 4 8 7 6 6 6 6 6 6 6 7 6 6 6 6
4 2 3 3 4 5 5 5 4 3 6 3 3 5 5 9 9 6 10 4 4 3 3 4 4 5 4 5 7 8 7 6 6 6 6 6 6 6 6 6 6 8 8
3 5 4 3 4 5 5 3 4 5 5 4 4 3 4 9 5 4 5 5 3 3 4 4 5 5 7 9 7 7 7 6 6 6 6 6 6 6 6 7 6 7 7
3 4 6 3 4 4 2 7 5 5 5 5 4 3 7 7 4 5 4 5 4 4 4 4 4 4 8 8 7 6 6 6 6 6 6 6 6 7 7 7 8 8 8
4 4 4 5 3 3 5 5 5 5 5 5 3 6 8 5 5 5 5 4 4 4 4 4 4 5 7 6 7 6 7 7 7 6 7 7 7 7 7 7 8 7 6
4 5 5 3 4 7 5 5 5 5 5 5 5 6 5 5 5 4 4 5 5 5 5 5 4 6 7 6 5 5 7 7 8 8 8 9 7 7 7 7 8 5 3
4 5 3 9 6 6 6 5 5 7 6 6 6 5 5 5 5 5 5 5 6 6 4 4 4 9 9 8 7 7 6 7 7 8 10 8 8 8 8 8 5 4 3
1 4 8 7 7 6 6 5 6 7 6 5 5 5 5 5 5 5 5 5 6 5 6 4 4 11 12 12 11 15 14 13 8 10 8 7 8 11 8 5 4 4 4
8 7 8 7 6 6 5 6 6 5 5 5 5 8 5 5 4 4 5 7 6 5 5 6 6 13 14 11 14 16 16 16 14 10 8 6 7 7 5 5 7 4 5
Wind_Direction
136 160 189 198 168 122 135 149 155 96 62 19 3 22 65 42 16 11 7 360 31 43 44 39 44 40 33 12 358 345 336 349 342 316 282 308 315 316 332 345 340 327 316
153 176 208 171 168 151 170 201 142 140 91 46 8 57 67 50 24 14 4 9 50 32 29 49 58 47 28 4 352 346 328 311 238 298 303 319 332 325 299 354 319 306 312
153 180 210 206 135 154 79 11 48 116 115 61 29 88 74 56 33 5 10 359 322 49 3 98 101 89 21 341 327 329 315 314 308 280 299 292 289 304 329 316 305 315 317
166 197 191 157 170 182 28 208 120 61 110 72 46 111 95 68 48 14 357 344 340 320 354 95 143 143 146 320 323 315 311 312 295 297 288 279 280 285 277 267 297 279 290
164 191 165 172 192 141 64 19 143 97 81 99 60 111 108 82 50 349 338 327 314 328 295 247 186 171 192 30 312 305 313 298 304 297 297 292 290 312 311 284 290 303 297
152 170 173 241 241 141 193 143 53 86 88 81 42 83 165 152 247 283 285 312 314 312 306 264 197 182 357 359 316 310 328 319 301 276 281 284 277 268 270 261 278 322 310
161 179 195 229 190 153 215 102 68 40 90 106 262 271 195 225 253 285 309 321 302 294 287 317 272 180 22 325 310 304 307 312 311 310 259 277 277 287 273 279 283 267 256
178 192 197 190 181 172 101 99 85 91 149 201 254 260 205 242 241 275 304 318 316 295 306 299 308 191 243 255 296 289 285 294 289 297 286 285 293 320 303 309 292 268 287
182 209 157 143 193 112 106 120 219 234 251 240 236 246 239 249 231 234 278 297 296 296 299 325 180 224 273 313 308 277 297 301 311 323 317 341 22 9 7 347 329 316 303
188 176 133 143 131 124 151 187 230 237 248 249 267 236 239 246 242 219 226 249 274 286 295 299 256 251 300 319 264 281 315 293 311 324 329 344 345 334 337 345 316 309 316
158 141 136 138 146 166 185 216 236 252 268 263 269 270 250 239 254 212 225 239 232 269 281 309 308 333 294 284 290 296 319 297 350 340 335 327 329 330 326 326 309 290 299
143 141 156 173 201 187 210 239 253 253 263 269 255 278 273 258 252 217 221 232 252 248 280 294 314 329 313 319 339 345 6 46 17 349 333 333 329 328 323 315 304 293 266
123 168 175 193 222 215 212 248 259 259 252 273 258 257 274 304 0 333 254 305 288 261 288 300 311 284 291 318 295 131 103 59 17 348 333 325 319 311 307 307 310 307 288
202 195 223 201 203 252 243 251 254 268 259 248 262 288 328 44 38 5 0 352 14 19 359 302 282 259 287 288 323 136 104 39 10 335 316 306 306 309 310 308 305 312 306
199 215 231 217 226 245 251 239 248 250 219 243 236 183 116 76 220 172 58 353 350 309 321 345 357 346 322 316 324 94 47 6 352 330 320 318 313 311 307 312 306 308 298
204 220 218 229 238 231 241 279 260 244 257 255 87 115 338 207 138 141 53 352 311 289 338 4 326 328 321 318 360 72 17 345 343 326 317 316 311 312 312 313 304 308 322
201 190 294 212 260 269 265 254 292 310 13 57 123 141 195 251 102 46 35 333 347 68 22 349 338 334 315 358 41 40 333 339 331 330 320 317 313 308 310 314 312 310 310
153 284 286 280 290 299 287 278 291 313 98 43 354 64 259 42 74 46 1 26 27 10 16 348 339 340 2 26 16 343 338 332 335 326 321 318 315 311 314 315 315 315 320
183 214 247 251 286 283 288 317 341 76 106 108 28 4 339 73 85 42 46 62 46 29 345 355 350 355 16 11 342 339 335 330 323 322 321 318 313 312 308 302 301 299 288
226 213 221 271 289 313 314 0 74 68 105 98 56 5 21 77 58 32 39 35 42 17 11 342 358 34 8 334 340 336 332 330 329 324 319 317 312 301 293 292 289 286 293
235 247 222 249 261 283 37 77 66 61 70 98 67 65 89 86 76 51 47 28 30 10 340 352 50 14 352 349 345 337 328 321 316 316 313 306 304 307 306 299 299 300 290
269 266 197 222 260 92 92 89 77 62 68 77 94 61 76 70 56 55 27 9 352 344 334 47 39 1 0 348 342 334 322 317 318 319 310 305 305 302 302 300 304 307 301
288 307 256 81 96 88 78 74 71 69 69 64 66 72 67 60 65 48 20 348 333 326 22 63 21 1 1 351 341 320 308 315 317 308 298 297 304 302 305 304 305 300 335
291 314 48 100 82 76 76 71 71 69 68 64 68 83 86 79 59 30 7 343 338 354 70 63 25 16 0 357 342 329 322 314 302 286 279 285 291 296 297 309 286 304 319
8 58 96 88 81 79 76 64 66 69 60 58 59 65 66 57 44 21 352 353 352 23 35 50 15 16 4 353 344 337 330 320 299 288 295 278 277 287 286 292 322 330 321
91 87 79 81 81 81 84 70 60 77 64 44 69 83 68 60 34 12 7 7 12 20 46 22 30 17 4 354 346 337 339 332 332 320 303 289 293 299 324 318 328 329 329